OYLLG EGGD-EGPO

Flight info

Callsign OYLLG
Flight time 1h 43m
Altitude 26000
Route BCN P69 EXBUM/N0447F280 P69 DIZIM N864 KISWO/N0422F240 N864 TLA N601 GRICE DCT STN
Aircraft CL60/M-SBDE1E2E3FGHIJ1J4J5J7M3RWXY/LB1V1D1

Departure

Time 2026-04-21 21:09
Airport Bristol Airport (EGGD)

Arrival

Time 2026-04-21 22:53
Airport Stornoway Airport (EGPO)
Time Latitude Longitude Altitude Speed Heading
2026-04-21 21:01 51.37956 -2.71025 634 ft 6 kts 32°
2026-04-21 21:01 51.38010 -2.70977 634 ft 10 kts 20°
2026-04-21 21:01 51.38063 -2.70950 634 ft 3 kts 354°
2026-04-21 21:02 51.38082 -2.70988 634 ft 6 kts 289°
2026-04-21 21:02 51.38107 -2.71065 634 ft 6 kts 312°
2026-04-21 21:02 51.38128 -2.71103 634 ft 0 kts 308°
2026-04-21 21:02 51.38132 -2.71111 634 ft 4 kts 308°
2026-04-21 21:03 51.38133 -2.71213 634 ft 8 kts 266°
2026-04-21 21:03 51.38163 -2.71285 634 ft 9 kts 327°
2026-04-21 21:03 51.38224 -2.71346 634 ft 11 kts 325°
2026-04-21 21:03 51.38279 -2.71402 634 ft 10 kts 328°
2026-04-21 21:04 51.38337 -2.71471 634 ft 8 kts 328°
2026-04-21 21:04 51.38392 -2.71527 634 ft 10 kts 327°
2026-04-21 21:04 51.38439 -2.71589 634 ft 8 kts 282°
2026-04-21 21:04 51.38435 -2.71703 634 ft 12 kts 266°
2026-04-21 21:05 51.38430 -2.71859 634 ft 15 kts 270°
2026-04-21 21:05 51.38431 -2.72043 634 ft 17 kts 269°
2026-04-21 21:05 51.38425 -2.72197 634 ft 15 kts 266°
2026-04-21 21:05 51.38417 -2.72385 634 ft 18 kts 266°
2026-04-21 21:06 51.38410 -2.72567 634 ft 17 kts 266°
2026-04-21 21:06 51.38402 -2.72768 634 ft 19 kts 266°
2026-04-21 21:06 51.38393 -2.72990 634 ft 21 kts 266°
2026-04-21 21:06 51.38386 -2.73168 634 ft 0 kts 267°
2026-04-21 21:08 51.38386 -2.73179 635 ft 3 kts 267°
2026-04-21 21:08 51.38382 -2.73247 635 ft 9 kts 255°
2026-04-21 21:08 51.38328 -2.73340 635 ft 9 kts 196°
2026-04-21 21:08 51.38249 -2.73338 635 ft 11 kts 174°
2026-04-21 21:09 51.38213 -2.73314 635 ft 4 kts 98°
2026-04-21 21:09 51.38217 -2.73197 635 ft 36 kts 86°
2026-04-21 21:09 51.38258 -2.72182 638 ft 137 kts 85°
2026-04-21 21:09 51.38321 -2.70492 1290 ft 166 kts 86°
2026-04-21 21:10 51.38391 -2.68555 2142 ft 183 kts 86°
2026-04-21 21:10 51.38470 -2.66550 2910 ft 190 kts 87°
2026-04-21 21:10 51.38546 -2.64266 3489 ft 220 kts 88°
2026-04-21 21:10 51.38636 -2.61746 4069 ft 228 kts 87°
2026-04-21 21:11 51.38730 -2.59207 4648 ft 230 kts 87°
2026-04-21 21:11 51.38848 -2.56640 5233 ft 233 kts 83°
2026-04-21 21:11 51.39559 -2.54279 5796 ft 247 kts 50°
2026-04-21 21:11 51.41109 -2.52893 6040 ft 267 kts 18°
2026-04-21 21:12 51.42968 -2.53197 6339 ft 279 kts 340°
2026-04-21 21:12 51.44453 -2.55232 6986 ft 295 kts 307°
2026-04-21 21:12 51.45536 -2.58136 7633 ft 304 kts 302°
2026-04-21 21:12 51.46582 -2.61054 8241 ft 304 kts 302°
2026-04-21 21:13 51.47657 -2.64003 8859 ft 304 kts 302°
2026-04-21 21:13 51.48737 -2.66922 9496 ft 306 kts 303°
2026-04-21 21:13 51.49840 -2.69858 10152 ft 308 kts 303°
2026-04-21 21:13 51.50950 -2.72768 10760 ft 309 kts 304°
2026-04-21 21:14 51.52084 -2.75701 11391 ft 310 kts 304°
2026-04-21 21:14 51.53251 -2.78677 12031 ft 323 kts 304°
2026-04-21 21:14 51.54523 -2.81834 12654 ft 350 kts 305°
2026-04-21 21:14 51.55890 -2.85175 13269 ft 368 kts 305°
2026-04-21 21:15 51.57323 -2.88683 13894 ft 374 kts 305°
2026-04-21 21:15 51.58745 -2.92172 14514 ft 375 kts 305°
2026-04-21 21:15 51.60181 -2.95700 15150 ft 374 kts 305°
2026-04-21 21:15 51.61601 -2.99188 15780 ft 375 kts 305°
2026-04-21 21:16 51.63033 -3.02714 16418 ft 375 kts 304°
2026-04-21 21:16 51.64454 -3.06215 17035 ft 375 kts 304°
2026-04-21 21:16 51.65867 -3.09700 17656 ft 375 kts 304°
2026-04-21 21:16 51.67283 -3.13199 18283 ft 375 kts 304°
2026-04-21 21:17 51.68699 -3.16701 18923 ft 375 kts 304°
2026-04-21 21:17 51.70195 -3.20107 19544 ft 375 kts 312°
2026-04-21 21:17 51.72181 -3.22850 20177 ft 376 kts 328°
2026-04-21 21:17 51.74546 -3.24537 20805 ft 380 kts 343°
2026-04-21 21:18 51.77211 -3.25051 21450 ft 387 kts 359°
2026-04-21 21:18 51.79894 -3.24524 22074 ft 393 kts
2026-04-21 21:18 51.82594 -3.23841 22731 ft 397 kts
2026-04-21 21:18 51.85319 -3.23161 23500 ft 399 kts
2026-04-21 21:19 51.88063 -3.22478 24224 ft 401 kts
2026-04-21 21:19 51.90815 -3.21793 24875 ft 406 kts
2026-04-21 21:19 51.93609 -3.21098 25455 ft 411 kts
2026-04-21 21:19 51.96439 -3.20393 26090 ft 414 kts
2026-04-21 21:20 51.99288 -3.19683 26675 ft 418 kts
2026-04-21 21:20 52.02198 -3.18957 27245 ft 421 kts
2026-04-21 21:20 52.05108 -3.18421 27719 ft 423 kts 359°
2026-04-21 21:20 52.08046 -3.18190 28155 ft 427 kts 358°
2026-04-21 21:21 52.11036 -3.17964 28294 ft 435 kts 358°
2026-04-21 21:21 52.14070 -3.17730 28299 ft 436 kts 358°
2026-04-21 21:21 52.20115 -3.17257 28297 ft 428 kts 358°
2026-04-21 21:22 52.26012 -3.16798 28303 ft 426 kts 358°
2026-04-21 21:22 52.31923 -3.16339 28319 ft 426 kts 358°
2026-04-21 21:23 52.37830 -3.15880 28324 ft 426 kts 358°
2026-04-21 21:23 52.43768 -3.15417 28327 ft 425 kts 358°
2026-04-21 21:24 52.49658 -3.14957 28329 ft 425 kts 358°
2026-04-21 21:24 52.55536 -3.14498 28333 ft 424 kts 358°
2026-04-21 21:25 52.61421 -3.14036 28342 ft 424 kts 358°
2026-04-21 21:25 52.67288 -3.13575 28342 ft 423 kts 358°
2026-04-21 21:26 52.73129 -3.13483 28346 ft 416 kts 349°
2026-04-21 21:26 52.78836 -3.14842 28350 ft 416 kts 348°
2026-04-21 21:27 52.84573 -3.16209 28348 ft 415 kts 348°
2026-04-21 21:27 52.90296 -3.17315 28346 ft 420 kts 355°
2026-04-21 21:28 52.96138 -3.16876 28343 ft 421 kts 358°
2026-04-21 21:29 53.04885 -3.16161 28357 ft 420 kts 358°
2026-04-21 21:29 53.10705 -3.15684 28372 ft 419 kts 358°
2026-04-21 21:30 53.16537 -3.15211 28373 ft 419 kts 358°
2026-04-21 21:30 53.22355 -3.14745 28378 ft 419 kts 358°
2026-04-21 21:31 53.28203 -3.14277 28387 ft 420 kts 358°
2026-04-21 21:31 53.34032 -3.13811 28393 ft 420 kts 358°
2026-04-21 21:32 53.39831 -3.13465 28400 ft 416 kts 353°
2026-04-21 21:32 53.45589 -3.14308 28401 ft 415 kts 351°
2026-04-21 21:33 53.51354 -3.15191 28408 ft 416 kts 351°
2026-04-21 21:33 53.57145 -3.16078 28410 ft 415 kts 351°
2026-04-21 21:34 53.62862 -3.16953 28408 ft 416 kts 351°
2026-04-21 21:34 53.68650 -3.17838 28405 ft 416 kts 351°
2026-04-21 21:35 53.74433 -3.18724 28412 ft 416 kts 351°
2026-04-21 21:35 53.80201 -3.19609 28406 ft 416 kts 351°
2026-04-21 21:36 53.85959 -3.20495 28410 ft 417 kts 352°
2026-04-21 21:36 53.91722 -3.21382 28411 ft 417 kts 351°
2026-04-21 21:37 53.97507 -3.22275 28423 ft 416 kts 352°
2026-04-21 21:37 54.03305 -3.23172 28416 ft 416 kts 352°
2026-04-21 21:38 54.09112 -3.24074 28424 ft 418 kts 352°
2026-04-21 21:38 54.14904 -3.24975 28430 ft 419 kts 352°
2026-04-21 21:39 54.20706 -3.25880 28423 ft 420 kts 352°
2026-04-21 21:39 54.26533 -3.26791 28433 ft 420 kts 352°
2026-04-21 21:40 54.32348 -3.27703 28430 ft 422 kts 353°
2026-04-21 21:40 54.38194 -3.28623 28419 ft 424 kts 353°
2026-04-21 21:41 54.44099 -3.29554 28413 ft 425 kts 353°
2026-04-21 21:41 54.49955 -3.30480 28413 ft 425 kts 353°
2026-04-21 21:42 54.55831 -3.31412 28412 ft 425 kts 353°
2026-04-21 21:42 54.61741 -3.32351 28416 ft 427 kts 354°
2026-04-21 21:43 54.67707 -3.33304 28434 ft 429 kts 354°
2026-04-21 21:43 54.73723 -3.34080 28437 ft 433 kts 358°
2026-04-21 21:44 54.79769 -3.34166 28460 ft 435 kts 359°
2026-04-21 21:44 54.85870 -3.34251 28464 ft 436 kts 359°
2026-04-21 21:45 54.91999 -3.34339 28475 ft 435 kts 359°
2026-04-21 21:45 54.98064 -3.34429 28479 ft 437 kts 359°
2026-04-21 21:46 55.04176 -3.34520 28475 ft 439 kts 359°
2026-04-21 21:46 55.10284 -3.34614 28475 ft 439 kts 360°
2026-04-21 21:47 55.16419 -3.34708 28471 ft 440 kts 360°
2026-04-21 21:47 55.22575 -3.34805 28468 ft 440 kts 360°
2026-04-21 21:48 55.28657 -3.34900 28469 ft 438 kts 360°
2026-04-21 21:48 55.34803 -3.34998 28471 ft 438 kts
2026-04-21 21:49 55.40919 -3.35092 28467 ft 437 kts
2026-04-21 21:49 55.47014 -3.35185 28458 ft 437 kts
2026-04-21 21:50 55.53064 -3.36690 28456 ft 440 kts 346°
2026-04-21 21:50 55.59004 -3.39498 28461 ft 442 kts 346°
2026-04-21 21:51 55.64935 -3.42297 28469 ft 442 kts 347°
2026-04-21 21:51 55.70912 -3.45125 28484 ft 443 kts 347°
2026-04-21 21:52 55.76869 -3.47952 28487 ft 445 kts 347°
2026-04-21 21:52 55.82843 -3.50795 28501 ft 446 kts 347°
2026-04-21 21:53 55.88849 -3.53663 28521 ft 447 kts 347°
2026-04-21 21:53 55.94850 -3.56536 28521 ft 448 kts 347°
2026-04-21 21:54 56.00901 -3.59443 28526 ft 447 kts 347°
2026-04-21 21:54 56.06953 -3.62359 28521 ft 447 kts 347°
2026-04-21 21:55 56.12990 -3.65278 28518 ft 448 kts 346°
2026-04-21 21:55 56.18998 -3.68317 28512 ft 449 kts 340°
2026-04-21 21:55 56.21786 -3.70960 28508 ft 451 kts 328°
2026-04-21 21:56 56.24408 -3.74032 28507 ft 451 kts 328°
2026-04-21 21:56 56.29691 -3.80208 28513 ft 451 kts 328°
2026-04-21 21:57 56.35015 -3.86451 28501 ft 451 kts 328°
2026-04-21 21:57 56.40266 -3.92629 28484 ft 450 kts 328°
2026-04-21 21:58 56.45524 -3.98832 28467 ft 450 kts 328°
2026-04-21 21:58 56.50814 -4.05096 28469 ft 450 kts 328°
2026-04-21 21:59 56.56031 -4.11294 28487 ft 451 kts 328°
2026-04-21 21:59 56.61296 -4.17567 28500 ft 451 kts 328°
2026-04-21 22:00 56.66574 -4.23878 28498 ft 451 kts 328°
2026-04-21 22:00 56.71817 -4.30169 28492 ft 451 kts 328°
2026-04-21 22:01 56.77061 -4.36482 28492 ft 451 kts 328°
2026-04-21 22:01 56.82255 -4.42755 28495 ft 452 kts 328°
2026-04-21 22:02 56.87513 -4.49128 28485 ft 452 kts 328°
2026-04-21 22:02 56.92777 -4.55529 28478 ft 452 kts 328°
2026-04-21 22:03 56.98077 -4.61997 28488 ft 452 kts 328°
2026-04-21 22:03 57.03318 -4.68415 28447 ft 453 kts 327°
2026-04-21 22:03 57.05977 -4.71678 28037 ft 456 kts 327°
2026-04-21 22:04 57.08572 -4.74871 27580 ft 450 kts 327°
2026-04-21 22:04 57.11155 -4.78052 27114 ft 445 kts 328°
2026-04-21 22:04 57.13710 -4.81206 26632 ft 441 kts 327°
2026-04-21 22:04 57.16244 -4.84339 26150 ft 437 kts 328°
2026-04-21 22:05 57.18745 -4.87436 25671 ft 434 kts 328°
2026-04-21 22:05 57.21230 -4.90518 25198 ft 430 kts 328°
2026-04-21 22:05 57.23700 -4.93586 24725 ft 427 kts 328°
2026-04-21 22:05 57.26141 -4.96625 24256 ft 423 kts 328°
2026-04-21 22:06 57.28565 -4.99646 23793 ft 419 kts 328°
2026-04-21 22:06 57.30978 -5.02658 23330 ft 416 kts 327°
2026-04-21 22:06 57.33359 -5.05635 22865 ft 413 kts 328°
2026-04-21 22:06 57.35722 -5.08595 22411 ft 410 kts 328°
2026-04-21 22:07 57.38077 -5.11549 21961 ft 407 kts 328°
2026-04-21 22:07 57.40391 -5.14457 21520 ft 404 kts 328°
2026-04-21 22:07 57.42724 -5.17392 21079 ft 401 kts 328°
2026-04-21 22:07 57.44986 -5.20243 20648 ft 399 kts 328°
2026-04-21 22:08 57.47309 -5.23175 20208 ft 396 kts 328°
2026-04-21 22:08 57.49543 -5.25999 19790 ft 393 kts 328°
2026-04-21 22:08 57.51806 -5.28864 19347 ft 391 kts 328°
2026-04-21 22:08 57.54047 -5.31706 18914 ft 388 kts 328°
2026-04-21 22:09 57.56256 -5.34511 18487 ft 385 kts 328°
2026-04-21 22:09 57.58475 -5.37333 18068 ft 382 kts 328°
2026-04-21 22:09 57.60640 -5.40091 17638 ft 380 kts 328°
2026-04-21 22:09 57.62817 -5.42867 17222 ft 377 kts 327°
2026-04-21 22:10 57.64968 -5.45615 16809 ft 375 kts 327°
2026-04-21 22:10 57.67124 -5.48372 16395 ft 373 kts 327°
2026-04-21 22:10 57.69262 -5.51112 15985 ft 371 kts 327°
2026-04-21 22:10 57.71390 -5.53841 15588 ft 369 kts 327°
2026-04-21 22:11 57.73473 -5.56517 15189 ft 366 kts 327°
2026-04-21 22:11 57.75577 -5.59225 14779 ft 364 kts 327°
2026-04-21 22:11 57.77641 -5.61884 14376 ft 362 kts 327°
2026-04-21 22:11 57.79726 -5.64574 13982 ft 359 kts 327°
2026-04-21 22:12 57.81777 -5.67225 13598 ft 353 kts 326°
2026-04-21 22:12 57.83777 -5.69813 13203 ft 345 kts 327°
2026-04-21 22:12 57.85729 -5.72344 12828 ft 336 kts 327°
2026-04-21 22:12 57.87612 -5.74788 12468 ft 329 kts 327°
2026-04-21 22:13 57.89476 -5.77212 12110 ft 321 kts 327°
2026-04-21 22:13 57.91322 -5.79614 11751 ft 313 kts 327°
2026-04-21 22:13 57.93093 -5.81923 11410 ft 305 kts 327°
2026-04-21 22:13 57.94836 -5.84199 11072 ft 298 kts 327°
2026-04-21 22:14 57.96516 -5.86393 10752 ft 292 kts 327°
2026-04-21 22:14 57.98176 -5.88563 10430 ft 286 kts 327°
2026-04-21 22:14 57.99810 -5.90702 10113 ft 285 kts 327°
2026-04-21 22:14 58.01452 -5.92853 9804 ft 285 kts 327°
2026-04-21 22:15 58.03083 -5.94991 9480 ft 285 kts 327°
2026-04-21 22:15 58.04689 -5.97100 9170 ft 284 kts 327°
2026-04-21 22:15 58.06302 -5.99219 8857 ft 283 kts 327°
2026-04-21 22:15 58.07928 -6.01361 8598 ft 281 kts 327°
2026-04-21 22:16 58.09514 -6.03449 8558 ft 281 kts 327°
2026-04-21 22:16 58.11116 -6.05563 8552 ft 281 kts 327°
2026-04-21 22:16 58.12719 -6.07680 8570 ft 276 kts 327°
2026-04-21 22:16 58.14256 -6.09714 8566 ft 271 kts 327°
2026-04-21 22:17 58.15794 -6.11750 8567 ft 265 kts 327°
2026-04-21 22:17 58.17276 -6.13714 8566 ft 262 kts 327°
2026-04-21 22:17 58.18760 -6.15682 8555 ft 260 kts 327°
2026-04-21 22:17 58.20253 -6.17665 8552 ft 259 kts 327°
2026-04-21 22:18 58.21749 -6.19542 8574 ft 249 kts 337°
2026-04-21 22:18 58.23337 -6.20004 8564 ft 223 kts 15°
2026-04-21 22:18 58.24713 -6.18842 8571 ft 210 kts 39°
2026-04-21 22:18 58.25715 -6.16835 8568 ft 210 kts 59°
2026-04-21 22:19 58.26259 -6.14271 8566 ft 210 kts 80°
2026-04-21 22:19 58.26269 -6.11523 8564 ft 211 kts 100°
2026-04-21 22:19 58.25732 -6.08946 8559 ft 212 kts 122°
2026-04-21 22:19 58.24685 -6.06897 8564 ft 217 kts 143°
2026-04-21 22:20 58.23268 -6.05788 8559 ft 222 kts 167°
2026-04-21 22:20 58.21730 -6.05483 8557 ft 224 kts 173°
2026-04-21 22:20 58.20157 -6.05241 8560 ft 225 kts 172°
2026-04-21 22:20 58.18608 -6.04992 8562 ft 225 kts 172°
2026-04-21 22:21 58.17024 -6.04735 8568 ft 225 kts 172°
2026-04-21 22:21 58.15467 -6.04481 8567 ft 225 kts 172°
2026-04-21 22:21 58.13906 -6.04252 8567 ft 226 kts 177°
2026-04-21 22:21 58.12368 -6.04959 8563 ft 229 kts 206°
2026-04-21 22:22 58.11153 -6.06899 8576 ft 232 kts 233°
2026-04-21 22:22 58.10510 -6.09677 8572 ft 233 kts 261°
2026-04-21 22:22 58.10617 -6.12732 8567 ft 232 kts 291°
2026-04-21 22:22 58.11450 -6.15292 8571 ft 228 kts 319°
2026-04-21 22:23 58.12770 -6.16809 8572 ft 223 kts 346°
2026-04-21 22:23 58.14304 -6.17258 8571 ft 220 kts 359°
2026-04-21 22:23 58.15844 -6.17496 8565 ft 221 kts 358°
2026-04-21 22:23 58.17377 -6.17748 8568 ft 221 kts 358°
2026-04-21 22:24 58.18919 -6.18002 8565 ft 221 kts 358°
2026-04-21 22:24 58.20445 -6.18254 8562 ft 221 kts 358°
2026-04-21 22:24 58.21961 -6.17914 8555 ft 214 kts 27°
2026-04-21 22:24 58.23085 -6.16172 8570 ft 210 kts 58°
2026-04-21 22:25 58.23548 -6.13585 8568 ft 209 kts 88°
2026-04-21 22:25 58.23220 -6.10932 8576 ft 211 kts 119°
2026-04-21 22:25 58.22159 -6.08992 8568 ft 218 kts 152°
2026-04-21 22:25 58.20672 -6.08392 8569 ft 221 kts 173°
2026-04-21 22:26 58.19133 -6.08171 8563 ft 223 kts 172°
2026-04-21 22:26 58.17597 -6.07925 8558 ft 223 kts 172°
2026-04-21 22:26 58.16028 -6.07672 8558 ft 223 kts 172°
2026-04-21 22:26 58.14474 -6.07498 8555 ft 225 kts 182°
2026-04-21 22:27 58.13008 -6.08523 8556 ft 229 kts 217°
2026-04-21 22:27 58.12082 -6.10923 8557 ft 232 kts 252°
2026-04-21 22:27 58.12040 -6.13924 8558 ft 230 kts 290°
2026-04-21 22:27 58.12927 -6.16326 8561 ft 225 kts 328°
2026-04-21 22:28 58.14362 -6.17268 8561 ft 219 kts 357°
2026-04-21 22:28 58.15887 -6.17507 8562 ft 220 kts 358°
2026-04-21 22:28 58.17408 -6.17752 8561 ft 221 kts 358°
2026-04-21 22:28 58.18932 -6.18004 8562 ft 221 kts 358°
2026-04-21 22:29 58.20479 -6.18258 8561 ft 221 kts 358°
2026-04-21 22:29 58.21978 -6.17929 8554 ft 215 kts 27°
2026-04-21 22:29 58.23113 -6.16213 8566 ft 210 kts 58°
2026-04-21 22:29 58.23581 -6.13605 8565 ft 210 kts 89°
2026-04-21 22:30 58.23242 -6.10961 8573 ft 212 kts 120°
2026-04-21 22:30 58.22167 -6.09031 8566 ft 218 kts 153°
2026-04-21 22:30 58.20681 -6.08430 8571 ft 221 kts 173°
2026-04-21 22:30 58.19143 -6.08208 8571 ft 223 kts 172°
2026-04-21 22:31 58.17587 -6.07963 8571 ft 223 kts 172°
2026-04-21 22:31 58.16022 -6.07712 8574 ft 224 kts 172°
2026-04-21 22:31 58.14465 -6.07554 8570 ft 226 kts 184°
2026-04-21 22:31 58.13019 -6.08624 8572 ft 229 kts 218°
2026-04-21 22:32 58.12109 -6.11104 8574 ft 232 kts 254°
2026-04-21 22:32 58.12106 -6.14068 8572 ft 230 kts 291°
2026-04-21 22:32 58.13040 -6.16441 8570 ft 224 kts 330°
2026-04-21 22:32 58.14488 -6.17300 8568 ft 219 kts 358°
2026-04-21 22:33 58.16020 -6.17532 8567 ft 221 kts 358°
2026-04-21 22:33 58.17569 -6.17781 8562 ft 221 kts 358°
2026-04-21 22:33 58.19100 -6.18032 8560 ft 221 kts 358°
2026-04-21 22:33 58.20645 -6.18281 8561 ft 221 kts 360°
2026-04-21 22:34 58.22116 -6.17807 8556 ft 214 kts 30°
2026-04-21 22:34 58.23193 -6.15935 8564 ft 210 kts 61°
2026-04-21 22:34 58.23582 -6.13300 8561 ft 210 kts 91°
2026-04-21 22:34 58.23171 -6.10672 8574 ft 213 kts 122°
2026-04-21 22:35 58.22046 -6.08868 8562 ft 219 kts 157°
2026-04-21 22:35 58.20538 -6.08378 8566 ft 222 kts 173°
2026-04-21 22:35 58.18987 -6.08151 8558 ft 223 kts 172°
2026-04-21 22:35 58.17439 -6.07904 8555 ft 223 kts 172°
2026-04-21 22:36 58.14352 -6.07532 8553 ft 225 kts 186°
2026-04-21 22:36 58.12912 -6.08709 8556 ft 229 kts 220°
2026-04-21 22:36 58.12050 -6.11203 8558 ft 231 kts 255°
2026-04-21 22:37 58.12103 -6.14212 8561 ft 230 kts 294°
2026-04-21 22:37 58.13080 -6.16495 8561 ft 224 kts 332°
2026-04-21 22:37 58.14554 -6.17302 8564 ft 219 kts 358°
2026-04-21 22:37 58.16098 -6.17535 8565 ft 220 kts 358°
2026-04-21 22:38 58.17615 -6.17781 8562 ft 221 kts 358°
2026-04-21 22:38 58.19139 -6.18032 8560 ft 221 kts 358°
2026-04-21 22:38 58.20664 -6.18279 8565 ft 220 kts 360°
2026-04-21 22:38 58.22140 -6.17789 8565 ft 214 kts 30°
2026-04-21 22:39 58.23211 -6.15939 8575 ft 210 kts 60°
2026-04-21 22:39 58.23611 -6.13293 8581 ft 211 kts 90°
2026-04-21 22:39 58.23209 -6.10665 8589 ft 213 kts 122°
2026-04-21 22:39 58.22052 -6.08874 8579 ft 219 kts 158°
2026-04-21 22:40 58.20544 -6.08415 8584 ft 222 kts 173°
2026-04-21 22:40 58.19000 -6.08184 8578 ft 223 kts 172°
2026-04-21 22:40 58.17442 -6.07936 8570 ft 223 kts 172°
2026-04-21 22:40 58.15910 -6.07688 8567 ft 223 kts 172°
2026-04-21 22:41 58.14350 -6.07569 8558 ft 226 kts 186°
2026-04-21 22:41 58.12912 -6.08766 8558 ft 230 kts 220°
2026-04-21 22:41 58.12062 -6.11275 8560 ft 232 kts 256°
2026-04-21 22:41 58.12123 -6.14278 8563 ft 230 kts 294°
2026-04-21 22:42 58.13106 -6.16559 8560 ft 224 kts 333°
2026-04-21 22:42 58.14563 -6.17314 8562 ft 219 kts 358°
2026-04-21 22:42 58.16085 -6.17537 8564 ft 220 kts 358°
2026-04-21 22:42 58.17617 -6.17784 8561 ft 221 kts 358°
2026-04-21 22:43 58.19146 -6.18035 8559 ft 221 kts 358°
2026-04-21 22:43 58.20678 -6.18281 8561 ft 221 kts
2026-04-21 22:43 58.22161 -6.17777 8559 ft 214 kts 31°
2026-04-21 22:43 58.23226 -6.15905 8565 ft 210 kts 62°
2026-04-21 22:44 58.23601 -6.13260 8562 ft 210 kts 92°
2026-04-21 22:44 58.23185 -6.10660 8576 ft 212 kts 123°
2026-04-21 22:44 58.22041 -6.08872 8562 ft 218 kts 158°
2026-04-21 22:44 58.20544 -6.08412 8564 ft 222 kts 176°
2026-04-21 22:45 58.19047 -6.09121 8553 ft 228 kts 210°
2026-04-21 22:45 58.17979 -6.11329 8561 ft 231 kts 245°
2026-04-21 22:45 58.17736 -6.14307 8573 ft 231 kts 282°
2026-04-21 22:45 58.18456 -6.16952 8534 ft 223 kts 321°
2026-04-21 22:46 58.19797 -6.18170 8231 ft 215 kts 355°
2026-04-21 22:46 58.21291 -6.18414 7901 ft 215 kts 359°
2026-04-21 22:46 58.22777 -6.18640 7621 ft 214 kts 359°
2026-04-21 22:46 58.24263 -6.18875 7332 ft 214 kts 359°
2026-04-21 22:47 58.25727 -6.19107 7031 ft 214 kts 359°
2026-04-21 22:47 58.27220 -6.19344 6740 ft 213 kts 359°
2026-04-21 22:47 58.28687 -6.19578 6448 ft 211 kts 359°
2026-04-21 22:47 58.30136 -6.19810 6069 ft 210 kts 359°
2026-04-21 22:48 58.31587 -6.20047 5707 ft 208 kts 358°
2026-04-21 22:48 58.32992 -6.20832 5312 ft 214 kts 334°
2026-04-21 22:48 58.34093 -6.22710 4898 ft 216 kts 308°
2026-04-21 22:48 58.34623 -6.25408 4283 ft 221 kts 276°
2026-04-21 22:49 58.34551 -6.28313 3686 ft 221 kts 264°
2026-04-21 22:49 58.34329 -6.31147 3070 ft 209 kts 251°
2026-04-21 22:49 58.33604 -6.33414 2496 ft 194 kts 219°
2026-04-21 22:49 58.32513 -6.34655 2001 ft 177 kts 191°
2026-04-21 22:50 58.31373 -6.34983 1651 ft 157 kts 173°
2026-04-21 22:50 58.30369 -6.34914 1463 ft 135 kts 167°
2026-04-21 22:50 58.29489 -6.34736 1259 ft 125 kts 165°
2026-04-21 22:50 58.28600 -6.34502 1138 ft 128 kts 165°
2026-04-21 22:51 58.27731 -6.34283 1068 ft 128 kts 166°
2026-04-21 22:51 58.26836 -6.34087 958 ft 130 kts 167°
2026-04-21 22:51 58.25938 -6.33919 779 ft 128 kts 169°
2026-04-21 22:51 58.25063 -6.33779 591 ft 125 kts 169°
2026-04-21 22:52 58.24195 -6.33627 401 ft 123 kts 170°
2026-04-21 22:52 58.23342 -6.33451 212 ft 123 kts 171°
2026-04-21 22:52 58.22487 -6.33284 67 ft 123 kts 172°
2026-04-21 22:52 58.21699 -6.33132 16 ft 97 kts 174°
2026-04-21 22:53 58.21231 -6.33044 15 ft 43 kts 173°
2026-04-21 22:53 58.20988 -6.32998 16 ft 24 kts 174°
2026-04-21 22:53 58.20916 -6.32975 17 ft 3 kts 130°
2026-04-21 22:53 58.20921 -6.32886 16 ft 10 kts 83°
2026-04-21 22:54 58.20933 -6.32713 16 ft 14 kts 83°
2026-04-21 22:54 58.20945 -6.32601 16 ft 9 kts 61°
2026-04-21 22:54 58.21014 -6.32534 18 ft 13 kts 354°
2026-04-21 22:54 58.21120 -6.32550 18 ft 17 kts 355°
2026-04-21 22:55 58.21245 -6.32570 17 ft 13 kts 355°
2026-04-21 22:55 58.21338 -6.32584 18 ft 9 kts 359°
2026-04-21 22:55 58.21402 -6.32507 19 ft 12 kts 52°
2026-04-21 22:55 58.21449 -6.32390 21 ft 8 kts 59°
2026-04-21 22:56 58.21462 -6.32288 24 ft 2 kts 96°
2026-04-21 22:56 58.21435 -6.32274 25 ft 5 kts 163°
2026-04-21 22:56 58.21429 -6.32223 26 ft 5 kts 84°
2026-04-21 22:56 58.21429 -6.32210 26 ft 0 kts 83°